Showing default

RAPTOR3, 58958

Orbit data source: Space-Track

RAPTOR3, 58958 is a payload satellite owned by SDA (US) in LEO that was launched on Wed, 14 Feb 2024 UTC via an FALCON 9 launch vehicle from the Air Force Eastern Test Range (AFETR). Payload-class satellites include a variety of spacecraft equipped with specific instruments for various scientific and technological missions. These include communications satellites like Starlink; space stations such as the ISS; scientific satellites like the Hubble; Earth observation satellites from companies like Planet Labs, Umbra, and HawkEye 360; GPS; miniature CubeSats for education and research; and military/defense satellites.

Loading next visibility...
Identifier
58958, 2024-028D
Orbit
LEO
Country
Flag of USUS
Related business
Manufacturer
L3Harris SIS
Mission
Operational Defense Early Warn
Bus & Motor
TPL0-L3H, Unknown motor
Mass
~1,000 kg wet, ~1,000 kg dry
Launch date (UTC)
2024-02-14 (2 years ago)
Launch vehicle
FALCON 9
Launch site
Air Force Eastern Test Range (AFETR)
Object type
Payload
Rocket body
Debris
Shape & HBR
Box + 1 Pan, 1.0 m
Radar Cross Section
0.945 m², Large (>1 m²)

Expand to show TLE details & history
Last TLE update: 13 hours ago

TLE from 13 hours ago
0 RAPTOR3
1 58958U 24028D   25259.21359181 -.00000046  00000-0  35543-4 0  9999
2 58958  39.9901 222.1013 0010768 118.2228 241.9606 13.70462863 79470
Epoch: 2025-09-16T05:07Z
TLE epoch observation values (Epoch: 2025-09-16T05:07:34.332Z)
Latitude
-0.00006°
Longitude
149.80106°
Altitude
1,001.13 km
Speed
7.351 km/s
True Right ascension
14h 48m 24s
True Declination
0° 00' 00"
Sunlit
Object was in daylight at epoch
Visualization orbit readout
Latitude
Unknown
Longitude
Unknown
Altitude
Unknown
Speed
Unknown
Apparent Right ascension
Unknown
Apparent Declination
Unknown
Sunlit
N/A
Visualization observer readout
Local Sidereal Time
10:39:40
Azimuth
Unknown
Elevation
Unknown
Doppler factor
Unknown
Orbital elements
Apogee altitude
1,008.132 km
Perigee altitude
992.242 km
Semi-major axis
7,378.324 km
Eccentricity
0.00108
Inclination
39.9901°
RAAN
222.1013°
Arg. of periapsis
118.2228°
True anomaly
241.85176°
Mean anomaly
241.9606°
Eccentric anomaly
241.90617°
Mean motion
3.42457 °/min
Orbital period
105.12 mins
BSTAR
0.000035543
Loading maneuver chart data...
Computing Atmospheric mass density...
Loading historical data...
Loading historical data...
Loading historical data...
Loading historical data...
Loading historical data...
Loading historical data...
Loading historical data...
Other satellites on launch #28 in the year 2024 (2024-02-14 UTC)

Documentation

Showing up to 5 results
|